Location: Unspecified
(0.0000°N, 0.0000°E)
Time: 19:07:15
(UTC+01:00)

Transit 2A - Visible Passes

Search period start: 08 December 2016 00:00
Search period end: 18 December 2016 00:00
Orbit: 597 x 963 km, 66.7° (Epoch: 07 December)

Date Brightness Start Highest point End Pass type
(mag) Time Alt. Az. Time Alt. Az. Time Alt. Az.
08 Dec 8.8 06:27:31 10° S 06:32:59 31° ESE 06:38:24 10° NE visible
09 Dec 9.4 05:54:37 10° SSE 05:59:00 19° ESE 06:03:21 10° ENE visible
10 Dec 9.8 05:22:56 10° SE 05:25:00 12° ESE 05:27:02 10° E visible
10 Dec 9.0 19:39:55 10° WNW 19:42:17 14° WSW 19:44:42 10° SW visible
12 Dec 7.4 05:54:01 10° S 06:00:11 54° ESE 06:06:16 10° NE visible
13 Dec 8.2 05:20:33 10° S 05:26:13 34° ESE 05:31:49 10° NE visible
14 Dec 8.8 04:47:31 10° SSE 04:52:15 22° ESE 04:56:54 10° ENE visible
15 Dec 9.3 04:15:21 10° SE 04:18:14 13° ESE 04:21:06 10° E visible
15 Dec 6.5 05:55:07 10° SSW 06:01:20 56° WNW 06:07:24 10° N visible
16 Dec 6.4 05:21:00 10° SSW 05:27:23 87° WNW 05:33:37 10° NNE visible
17 Dec 6.9 04:47:10 10° S 04:53:26 60° ESE 04:59:33 10° NNE visible
17 Dec 8.0 06:34:08 10° W 06:36:25 12° WNW 06:38:41 10° NW visible
